User: anonymous   Login
Location: Gouy
(50.0008°N, 3.2556°E)
Time: 15:16:06
(UTC+00:00)
Language:

Meteor 1-4 Rocket - Orbit

View from above orbital plane
View from above orbital plane
View from above satellite
View from above satellite

Ground track
Ground track

The orbit data is extracted from the following two-line orbital elements,

1 04394U 70037B   24206.91915350  .00080871  00000-0  63157-3 0  9993
2 04394  81.2263 177.4319 0018604 166.0461 194.1316 15.71132658963157
Epoch (UTC): 24 July 2024 22:03:34
Eccentricity: 0.0018604
inclination: 81.2263°
perigee height: 343 km
apogee height: 368 km
right ascension of ascending node: 177.4319°
argument of perigee: 166.0461°
revolutions per day: 15.71132658
mean anomaly at epoch: 194.1316°
orbit number at epoch: 96315

The dashed part of the orbit path shows where the satellite is in the earth's shadow,  

DLR